Location: *
(53.9450°S, 136.6720°W)
Time: 09:52:57
(UTC+00:00)

Daily predictions for brighter satellites

Satellite Brightness Start Highest point End
(mag) Time Altitude Azimuth Time Altitude Azimuth Time Altitude Azimuth
ATLAS 3B R/B 3.7 12:27:17 45° E 12:27:17 45° E 12:32:26 10° ENE
Cosmos 2333 Rocket 4.1 12:29:38 26° ESE 12:29:38 26° ESE 12:32:49 10° SE
Cosmos 2219 Rocket 3.9 12:39:59 29° ESE 12:39:59 29° ESE 12:43:01 10° SE
NOSS 3-1 (C) 4.2 12:46:13 64° ESE 12:46:13 64° ESE 12:52:12 10° SE
NOSS 3-2 (C) 4.5 12:46:49 44° SE 12:46:49 44° SE 12:52:15 10° E
CENTAUR R/B 3.7 12:54:53 35° SSE 12:54:53 35° SSE 12:59:40 10° ESE
Cosmos 2237 Rocket 3.5 12:56:43 37° E 12:56:43 37° E 13:01:33 10° SE
SL-16 R/B 4.3 13:01:27 19° SSE 13:01:27 19° SSE 13:03:15 10° SSE
SL-16 R/B 3.7 12:57:59 10° SSE 13:01:15 33° SSE 13:01:15 33° SSE
NOSS 3-2 (A) 4.1 13:06:16 55° SSE 13:06:16 55° SSE 13:12:21 10° ENE
USA 229 DEB 4.2 13:10:44 55° S 13:10:44 55° S 13:16:44 10° SE
USA 229 4.1 13:10:50 55° S 13:10:50 55° S 13:16:50 10° SE
Lacrosse 5 rocket 4.2 13:15:03 13° ENE 13:15:03 13° ENE 13:16:05 10° E
NOSS 0 Rocket 4.4 13:15:14 57° NE 13:15:31 57° ENE 13:21:41 10° SE
ATLAS 2AS CENTAUR R/B 4.0 13:12:58 19° NNE 13:16:10 29° ENE 13:21:18 10° ESE
IDEFIX/ARIANE 42P 3.4 13:11:56 10° NE 13:16:41 48° ESE 13:16:41 48° ESE
NOSS 3-1 (A) 3.8 13:17:45 85° N 13:17:59 87° NE 13:25:14 10° SE
Cosmos 1937 Rocket 4.5 13:23:15 44° NE 13:23:15 44° NE 13:26:58 10° NE
Cosmos 2344 4.4 13:22:56 46° WSW 13:27:19 69° NW 13:37:14 10° NNE
CZ-2C R/B 3.2 13:22:28 10° NE 13:27:21 51° ESE 13:27:39 50° SE
COSMOS 2455 4.1 13:27:03 30° S 13:28:15 33° SSE 13:33:42 10° E
Ariane Rocket 3.7 13:29:05 10° NNE 13:32:47 47° NE 13:32:47 47° NE
Cosmos 2142 Rocket 4.4 13:33:55 78° NNE 13:34:20 84° E 13:40:37 10° SSE
Cosmos 2369 Rocket 3.5 13:33:52 29° S 13:35:43 36° SE 13:40:57 10° ENE
Cosmos 1943 Rocket 3.9 13:34:34 21° S 13:36:36 26° SE 13:41:17 10° E
Cosmos 2360 Rocket 3.7 13:40:27 26° S 13:40:27 26° S 13:43:24 10° SSE
COSMOS 2428 3.5 13:41:16 40° S 13:41:16 40° S 13:45:10 10° SSE
CZ-4 R/B 2.9 13:36:04 10° NE 13:39:26 36° E 13:39:26 36° E
ATLAS CENTAUR R/B 3.2 13:42:23 29° SSE 13:42:23 29° SSE 13:44:58 10° SE
Cosmos 1980 Rocket 4.2 13:42:01 15° S 13:42:01 15° S 13:44:31 10° SSE
Cosmos 1634 Rocket 3.9 13:44:51 77° SW 13:44:51 77° SW 13:50:56 10° S
Cosmos 2279 Rocket 4.2 13:39:45 10° N 13:46:02 72° E 13:52:23 10° SSE
Meteor 2-10 Rocket 3.8 13:44:53 37° N 13:47:09 72° E 13:52:55 10° SSE
Cosmos 2322 Rocket 4.0 13:52:36 19° S 13:52:36 19° S 13:55:24 10° SSE
SMAP 3.8 13:48:29 10° NE 13:53:03 53° ESE 13:54:55 33° S
Cosmos 1655 Rocket 3.9 13:57:56 66° WNW 13:57:56 66° WNW 14:04:09 10° N
USA 238 DEB 3.7 13:58:59 59° W 14:00:07 68° NW 14:07:06 10° NNE
USA 238 3.7 13:59:04 59° W 14:00:13 69° NW 14:07:13 10° NNE
CSL-04 Debris 4.0 13:57:24 10° NNE 14:02:52 85° WNW 14:04:14 53° SSW
Meteor 1-25 Rocket 4.2 13:59:37 24° SSW 14:03:21 88° ESE 14:09:11 10° NNE
Meteor 1-14 Rocket 4.0 14:04:43 71° WSW 14:04:59 73° W 14:10:32 10° N
Cosmos 2150 Rocket 4.3 14:08:33 49° NNW 14:08:33 49° NNW 14:12:36 10° N
Cosmos 2333 Rocket 2.2 14:11:40 61° WSW 14:11:48 61° SW 14:17:30 10° SSE
Okean 1-7 3.7 14:08:04 10° N 14:12:20 54° E 14:16:43 10° SSE
YAOGAN 1 3.2 14:08:26 10° NNE 14:12:45 56° ESE 14:15:13 24° S
Cosmos 2208 Rocket 4.0 14:12:21 65° WNW 14:13:01 73° WSW 14:18:35 10° SSE
Cosmos 468 Rocket 4.3 14:09:53 12° NNW 14:14:42 66° ENE 14:19:55 10° SSE
ATLAS 3B R/B 3.0 14:14:35 46° W 14:15:43 50° WNW 14:22:53 10° NNE
Cosmos 909 Rocket 4.4 14:16:42 40° SW 14:19:30 73° NW 14:27:53 10° NNE
COSMOS 2441 4.4 14:14:54 10° NNE 14:19:51 85° ESE 14:23:05 22° SSW
Cosmos 2221 Rocket 3.8 14:16:16 10° N 14:20:44 70° E 14:25:15 10° SSE
Cosmos 1980 3.7 14:20:28 54° W 14:21:28 64° SW 14:27:12 10° SSE
Cosmos 2219 Rocket 2.5 14:21:44 46° SW 14:21:44 46° SW 14:27:08 10° SSE
Okean 2 Rocket 3.0 14:23:22 59° SSW 14:24:11 79° W 14:28:46 10° N
Cosmos 724 4.4 14:21:55 37° SW 14:24:24 77° SE 14:30:29 10° NE
Cosmos 990 Rocket 4.1 14:24:33 54° WNW 14:24:33 54° WNW 14:29:34 10° N
EO 1 Del DPAF 3.6 14:26:31 10° SSE 14:30:29 68° ENE 14:34:23 10° N
CSL-04 Rocket 3.8 14:25:15 10° N 14:30:29 49° W 14:31:07 47° WSW
Cosmos 371 Rocket 4.0 14:29:29 10° N 14:34:15 56° ENE 14:39:06 10° SSE
CORIOLIS 4.1 14:28:56 10° NNE 14:34:26 84° WNW 14:40:00 10° SSW
Cosmos 1484 Rocket 2.7 14:31:10 10° NNE 14:34:57 79° ESE 14:36:23 37° S
NOSS 3-1 (C) 4.2 14:33:38 36° WSW 14:36:26 50° SSW 14:43:11 10° SE
Cosmos 1763 Rocket 4.0 14:31:42 10° N 14:36:42 58° ENE 14:41:45 10° SSE
NOSS 3-2 (C) 3.5 14:34:17 33° SW 14:37:38 84° NW 14:43:49 10° NE
Cosmos 1814 Rocket 4.2 14:33:17 10° NNW 14:38:37 75° ENE 14:43:56 10° SSE
Cosmos 1346 Rocket 3.7 14:35:19 10° N 14:39:07 49° E 14:42:58 10° SSE
Gbstr 26 Del rocket 3.4 14:38:41 46° WNW 14:39:30 53° NNW 14:43:32 10° ENE
Cosmos 2237 Rocket 2.3 14:38:35 40° W 14:40:17 53° SW 14:45:55 10° SSE
SL-16 R/B 2.2 14:35:35 10° NNW 14:41:17 87° ENE 14:47:03 10° SSE
Cosmos 1125 Rocket 3.5 14:38:39 24° SSW 14:41:59 86° ESE 14:47:18 10° NNE
SL-16 R/B 4.0 14:43:19 15° SSW 14:44:07 16° SSW 14:47:33 10° SSE
Meteor 1-20 Rocket 4.2 14:40:59 22° SSW 14:44:29 54° W 14:49:49 10° N
Cosmos 44 Rocket 4.0 14:44:30 36° WNW 14:44:44 36° WNW 14:49:24 10° N
CENTAUR R/B 2.8 14:42:05 26° SW 14:45:47 59° SSE 14:51:34 10° ENE
SL-16 R/B 3.8 14:42:25 10° S 14:46:20 22° SW 14:46:20 22° SW
MSX 3.9 14:42:38 10° N 14:48:22 56° W 14:54:08 10° SSW
MONITOR-E 4.3 14:48:00 10° NNE 14:51:12 81° ESE 14:52:19 38° S
Lacrosse 5 rocket 1.6 14:50:48 29° NW 14:52:34 58° NNE 14:56:17 10° ESE
Cosmos 1633 2.4 14:53:47 39° SSW 14:55:00 68° W 14:58:40 10° N
Cosmos 44 4.1 14:54:50 33° W 14:56:01 37° WNW 15:00:54 10° N
BREEZE-M R/B 4.3 14:46:13 20° W 14:56:21 64° N 15:00:47 10° ENE
IDEFIX/ARIANE 42P 3.2 14:52:04 10° NNW 14:56:48 33° W 14:57:28 32° W
NOSS 3-2 (A) 3.6 14:53:41 28° WSW 14:57:09 58° NW 15:03:09 10° NNE
SPOT 3 Rocket 3.5 14:56:12 10° N 15:01:27 71° WNW 15:06:46 10° SSW
Cosmos 1703 Rocket 4.0 14:57:31 10° NW 15:01:50 41° WSW 15:06:13 10° S
USA 229 DEB 4.5 14:58:11 24° SW 15:01:51 40° S 15:08:28 10° ESE
USA 229 4.5 14:58:17 24° WSW 15:01:57 40° S 15:08:34 10° ESE
NOSS 0 Rocket 4.3 14:59:18 27° W 15:02:16 43° SW 15:08:16 10° SSE
CZ-2C R/B 3.6 15:00:01 10° S 15:04:29 62° WSW 15:08:57 10° NNW
Cosmos 2151 Rocket 3.6 15:01:41 13° SSW 15:05:36 61° W 15:09:59 10° N
Cosmos 1606 2.6 15:01:40 10° NNW 15:05:36 76° WSW 15:09:34 10° S
CZ-2C R/B 3.2 15:01:24 10° NNW 15:05:50 31° W 15:07:03 28° WSW
ATLAS 2AS CENTAUR R/B 2.3 15:00:30 11° NW 15:06:29 81° SW 15:12:34 10° SE
Cosmos 2266 Rocket 4.2 15:01:16 10° SSW 15:07:04 45° W 15:12:50 10° NNW
TIMED 4.4 15:04:23 22° SSW 15:07:12 76° WNW 15:11:37 10° NNE
Cosmos 332 Rocket 3.8 15:04:25 10° NW 15:09:22 68° WSW 15:14:22 10° SSE
NOSS 3-1 (A) 4.2 15:05:14 24° W 15:09:39 47° SSW 15:16:18 10° SE
Cosmos 1782 2.9 15:08:59 10° NNW 15:13:02 57° WSW 15:17:09 10° S
Ariane Rocket 4.2 15:09:41 10° NW 15:13:00 22° WNW 15:13:00 22° WNW
Cosmos 1300 Rocket 3.5 15:09:45 10° SSW 15:14:13 86° WNW 15:18:35 10° N
CZ-4 R/B 2.2 15:11:20 10° NNW 15:14:57 29° W 15:15:30 28° W
COSMOS 2455 2.9 15:10:12 17° SW 15:14:59 86° SE 15:21:03 10° NE
Meteor 1-10 Rocket 4.3 15:09:15 10° NNW 15:15:08 80° WSW 15:21:12 10° SSE
Cosmos 1536 3.0 15:11:24 10° S 15:15:37 80° E 15:19:45 10° NNE
Meteor 1-11 Rocket 3.7 15:10:54 10° SSW 15:16:45 70° W 15:22:24 10° N
BREEZE-M DEB (TANK) 4.5 15:15:01 12° NW 15:18:27 47° NNE 15:25:34 10° E
Cosmos 2369 Rocket 2.2 15:15:41 17° SW 15:20:09 63° WNW 15:25:44 10° NNE
ATLAS CENTAUR R/B 3.0 15:18:41 20° SW 15:20:21 25° SSW 15:24:20 10° SE
Cosmos 2285 Rocket 4.1 15:14:32 10° NNW 15:21:00 87° ENE 15:27:33 10° SSE
Cosmos 1943 Rocket 2.2 15:16:07 13° SSW 15:21:11 85° ESE 15:26:50 10° NNE
COSMO-SKYMED 1 2.9 15:17:27 10° SSE 15:21:54 70° ENE 15:26:17 10° N
Resurs 01 Rocket 3.3 15:18:01 10° NE 15:22:00 32° ESE 15:26:03 10° S
Cosmos 2360 Rocket 3.9 15:22:13 14° SW 15:24:01 16° SSW 15:27:28 10° SSE
NOAA 12 4.2 15:19:07 10° NNE 15:24:29 88° ESE 15:29:55 10° SSW
Cosmos 540 Rocket 4.2 15:19:36 10° N 15:24:40 58° ENE 15:29:46 10° SSE
COSMOS 2428 4.1 15:23:18 18° SW 15:25:05 21° SSW 15:29:20 10° SSE
Cosmos 1980 Rocket 4.2 15:24:14 10° SSW 15:27:34 15° SSE 15:30:53 10° SE
USA 186 4.3 15:28:09 10° E 15:29:07 12° ESE 15:30:07 10° SE
SMAP 4.1 15:26:44 10° NNW 15:30:41 26° W 15:33:21 16° SW
USA 234 3.7 15:24:08 10° ESE 15:30:45 68° NNE 15:37:22 10° NW
Okean 1 Rocket 3.0 15:31:53 10° SSW 15:36:19 74° W 15:40:43 10° N
Cosmos 1745 Rocket 4.0 15:30:30 10° S 15:36:47 89° E 15:43:02 10° N
Cosmos 2322 Rocket 4.2 15:34:35 10° SSW 15:37:34 14° S 15:40:32 10° SSE
Okean 3 4.1 15:35:01 10° N 15:39:15 61° E 15:43:31 10° SSE
Cosmos 1602 4.5 15:36:35 12° SSW 15:39:44 33° W 15:43:15 10° NNW
H-2A R/B 3.6 15:38:35 10° NNE 15:42:30 54° ESE 15:46:28 10° S
ALOS 2.3 15:39:14 10° NNE 15:43:59 87° ESE 15:48:47 10° SSW
Meteor 2-6 Rocket 4.4 15:40:51 10° NNW 15:46:24 54° WSW 15:52:12 10° S
Cosmos 1378 Rocket 3.9 15:42:46 10° N 15:47:07 69° E 15:51:34 10° SSE
Cosmos 841 Rocket 3.6 15:43:30 10° NW 15:48:39 56° WSW 15:53:50 10° SSE
YAOGAN 1 3.8 15:45:45 10° NW 15:49:12 22° W 15:52:23 11° SW
Okean 1-7 4.2 15:46:45 10° WNW 15:50:17 23° WSW 15:53:53 10° S
Cosmos 1975 Rocket 4.2 15:47:11 10° NNE 15:51:24 47° E 15:55:41 10° SSE
Cosmos 2333 Rocket 3.5 15:53:43 13° WSW 15:57:16 22° SSW 16:01:39 10° SSE
SJ-6B 2.8 15:59:02 10° N 16:02:50 66° WNW 16:06:46 10° SSW
Cosmos 1603 3.7 15:58:35 10° NW 16:04:11 65° SW 16:09:52 10° SSE
ATLAS 3B R/B 4.5 16:01:55 10° WSW 16:04:56 13° WNW 16:07:59 10° NW
FREGAT/IRIS 3.0 16:02:15 10° N 16:05:15 45° W 16:08:17 10° SSW
GENESIS II 4.2 16:02:02 11° SW 16:05:51 88° NW 16:09:50 10° NE
Cosmos 2219 Rocket 3.7 16:03:28 11° WSW 16:07:04 18° SSW 16:10:58 10° SSE
SKYMED 2 3.9 16:05:37 10° S 16:09:53 46° WSW 16:14:06 10° NW
Meteor 1-27 Rocket 4.0 16:04:14 10° NNW 16:10:06 53° WSW 16:15:58 10° S
Iridium 4 Rocket 3.9 16:06:39 10° S 16:11:52 64° E 16:16:33 10° NNE
Cosmos 371 Rocket 4.1 16:10:41 10° WNW 16:15:00 30° SW 16:19:23 10° SSE
Cosmos 1500 3.4 16:11:30 10° S 16:15:30 83° ESE 16:19:26 10° NNE
Cosmos 1346 Rocket 4.0 16:12:44 10° WNW 16:15:48 21° WSW 16:18:55 10° S
Cosmos 1553 Rocket 4.1 16:11:41 10° NNW 16:18:06 67° WSW 16:24:37 10° S
Spot 2 Rocket 3.7 16:13:18 10° NNE 16:18:29 85° ESE 16:23:43 10° SSW
Cosmos 1763 Rocket 4.2 16:14:19 10° WNW 16:18:52 31° SW 16:23:27 10° SSE
FENGYUN 3A 3.9 16:14:01 10° N 16:19:22 55° W 16:24:47 10° SSW
FengYun 1-2 T 4.4 16:14:15 10° N 16:19:50 66° WNW 16:25:33 10° SSW
HJ-1C 3.7 16:16:36 10° N 16:20:02 53° W 16:23:32 10° SSW
Cosmos 1544 Rocket 3.7 16:17:47 10° SSW 16:22:23 89° W 16:26:56 10° N
H-2A R/B 4.4 16:20:28 10° E 16:23:40 16° SE 16:26:51 10° SSE
Thor Agena Rocket 3.8 16:19:14 10° S 16:24:11 47° WSW 16:29:11 10° NW
Cosmos 1697 Rocket 4.3 16:19:57 10° SSW 16:24:45 26° SSE 16:29:32 10° E
Cosmos 2237 Rocket 3.6 16:21:31 10° WSW 16:25:41 20° SSW 16:29:52 10° SSE
SL-16 R/B 3.1 16:21:14 10° W 16:26:08 28° SW 16:31:04 10° SSE
Meteor 1-28 Rocket 4.3 16:24:05 10° S 16:27:18 25° WSW 16:30:30 10° WNW
NOSS 3-1 (C) 4.4 16:21:50 10° WSW 16:28:46 39° S 16:34:53 10° ESE
SL-16 R/B 4.1 16:27:12 10° SSW 16:30:42 16° SSE 16:34:13 10° SE
